Location: Aurora Center
(43.5271°N, 98.5894°W)
Time: 01:19:04
(UTC-05:00)

BlueWalker 3 - Pass Details

Date: 20 June 2024
Orbit: 480 x 492 km, 53.2° (Epoch: 15 July)

Event Time Altitude Azimuth Distance (km) Brightness Sun altitude
Rises 23:49:08 0° 272° (W) 2,536 5.9 -18.7°
Reaches altitude 10° 23:51:35 10° 286° (WNW) 1,657 5.1 -18.9°
Maximum altitude 23:54:42 24° 343° (NNW) 1,022 4.3 -19.1°
Drops below altitude 10° 23:57:49 10° 40° (NE) 1,658 4.9 -19.3°
Sets 00:00:16 0° 54° (NE) 2,539 5.7 -19.5°
